Flag for Russia Weather past 2 weeks in Kemerovo, Russia

Now
50 °F

Mostly cloudy.


Feels Like: 49 °F
Forecast: 58 / 75 °F
Wind: 3 mph from South

Location: Kemerovo

Current Time: Jul 26, 2014 at 6:10:22 AM

Latest Report: Jul 26, 2014 at 5:30 AM


Visibility: N/A

Pressure: 29.71 "Hg

Humidity: 100%

Dew point: 50 °F

Location of KemerovoLocation

Historic Weather in Kemerovo — Graph

°F

Kemerovo temperature yesterday

Maximum temperature yesterday: 73 °F (at 5:00 PM)
Minimum temperature yesterday: 55 °F (at 3:00 AM)
Average temperature yesterday: 62 °F

Past Weeks' High & Low Weather Summary

 TemperatureHumidityPressure
High93 °F (Jul 12, 3:00 PM)100% (Jul 11, 5:00 AM)29.86 "Hg (Jul 11, 5:00 AM)
Low50 °F (Jul 26, 4:00 AM)31% (Jul 15, 6:00 PM)29.39 "Hg (Jul 24, 11:30 AM)
Average70 °F67%29.66 "Hg
* Reported Jul 11 5:00 AM — Jul 26 5:00 AM, Kemerovo, Weather by CustomWeather, © 2014

Note: Actual official high and low records may vary slightly from our data, if they occured in-between our weather recording intervals... More about our weather records

Advertising

Kemerovo weather history for previous 24 hours

 ConditionsComfort  
Time TempWeatherWind HumidityBarometerVisibility
5:00 AM
Jul 26
50 °FOvercast.3 mph100%29.71 "HgN/A
4:30 AM50 °FMostly cloudy.3 mph100%29.71 "HgN/A
4:00 AM50 °FMostly cloudy.1 mph100%29.71 "HgN/A
3:30 AM54 °FOvercast.6 mph94%29.71 "HgN/A
3:00 AM54 °FOvercast.1 mph94%29.71 "HgN/A
2:30 AM55 °FMostly cloudy.1 mph88%29.71 "HgN/A
2:00 AM55 °FMostly cloudy.6 mph88%29.71 "HgN/A
1:30 AM55 °FPartly cloudy.6 mph94%29.71 "HgN/A
1:00 AM55 °FPartly cloudy.3 mph94%29.71 "HgN/A
12:30 AM57 °FMostly cloudy.6 mph88%29.71 "HgN/A
12:00 AM57 °FOvercast.6 mph88%29.71 "HgN/A
11:30 PM
Jul 25
57 °FMostly cloudy.6 mph94%29.71 "HgN/A
11:00 PM57 °FMostly cloudy.3 mph94%29.71 "HgN/A
10:30 PM59 °FMore clouds than sun.3 mph88%29.71 "HgN/A
10:00 PM59 °FMore clouds than sun.3 mph88%29.71 "HgN/A
9:30 PM59 °FMostly cloudy.6 mph88%29.71 "HgN/A
9:00 PM59 °FMostly cloudy.6 mph88%29.71 "HgN/A
8:30 PM63 °FCloudy.8 mph88%29.71 "HgN/A
8:00 PM63 °FMore clouds than sun.8 mph88%29.71 "HgN/A
7:30 PM63 °FMostly cloudy.6 mph83%29.74 "HgN/A
7:00 PM63 °FSprinkles. Mostly cloudy.15 mph83%29.74 "HgN/A
6:30 PM72 °FBroken clouds.15 mph53%29.68 "HgN/A
6:00 PM72 °FBroken clouds.13 mph53%29.68 "HgN/A
5:30 PM73 °FBroken clouds.13 mph47%29.68 "HgN/A
5:00 PM73 °FBroken clouds.13 mph47%29.68 "HgN/A
4:30 PM72 °FBroken clouds.13 mph50%29.68 "HgN/A
4:00 PM72 °FBroken clouds.13 mph50%29.68 "HgN/A
3:30 PM70 °FBroken clouds.10 mph53%29.68 "HgN/A
3:00 PM70 °FBroken clouds.13 mph53%29.68 "HgN/A
2:30 PM68 °FBroken clouds.15 mph64%29.68 "HgN/A
2:00 PM68 °FBroken clouds.13 mph64%29.68 "HgN/A
1:30 PM68 °FBroken clouds.13 mph69%29.68 "HgN/A
1:00 PM68 °FMore clouds than sun.13 mph69%29.68 "HgN/A
12:30 PM64 °FMostly cloudy.10 mph78%29.65 "HgN/A
12:00 PM64 °FMore clouds than sun.15 mph78%29.65 "HgN/A
11:30 AM64 °FMore clouds than sun.10 mph78%29.65 "HgN/A
11:00 AM64 °FMostly cloudy.13 mph78%29.65 "HgN/A
10:30 AM59 °FMostly cloudy.10 mph94%29.65 "HgN/A
10:00 AM59 °FOvercast.8 mph94%29.62 "HgN/A
9:30 AM59 °FMostly cloudy.8 mph88%29.62 "HgN/A
9:00 AM59 °FMostly cloudy.10 mph88%29.59 "HgN/A
8:30 AM57 °FMostly cloudy.6 mph94%29.59 "HgN/A
8:00 AM57 °FMore clouds than sun.8 mph94%29.59 "HgN/A
7:30 AM55 °FMore clouds than sun.6 mph100%29.59 "HgN/A
7:00 AM55 °FMostly cloudy.6 mph100%29.59 "HgN/A
6:30 AM55 °FMostly cloudy.8 mph100%29.56 "HgN/A
6:00 AM55 °FMostly cloudy.8 mph100%29.56 "HgN/A
Weather by CustomWeather, © 2014

See weather overviewHow to use our weather pages